Regional Weather Roundup
Issued by NWS

Home | Current Version | Previous Version | Graphics & Text | Print | Product List | Glossary On
Versions: 1 2 3 4 5 6 7 8 9 10 11 12 13 14 15 16 17 18 19 20 21 22 23 24 25 26 27 28 29 30 31 32 33 34 35 36 37 38 39 40 41 42 43 44 45 46 47 48 49 50
000
ASUS43 KFSD 240210
RWRSD

WEATHER ROUNDUP FOR SOUTH DAKOTA
NATIONAL WEATHER SERVICE SIOUX FALLS SD
900 PM CDT SUN JUL 23 2017

NOTE: "FAIR" INDICATES FEW OR NO CLOUDS BELOW 12,000 FEET WITH NO
SIGNIFICANT WEATHER AND/OR OBSTRUCTIONS TO VISIBILITY.


SDZ001>005-009-010-012>017-240300-
NORTHWEST AND NORTH CENTRAL SOUTH DAKOTA

CITY           SKY/WX    TMP DP  RH WIND       PRES   REMARKS
BUFFALO          N/A     83  50  31 SE12      29.88F
FAITH            N/A     82  51  34 SE17      29.96S
MOBRIDGE       CLEAR     75  60  59 E6        29.95F
$$

SDZ012>016-024>037-041>051-057-063-072>074-240300-
SOUTHWEST AND SOUTH CENTRAL SOUTH DAKOTA

CITY           SKY/WX    TMP DP  RH WIND       PRES   REMARKS
RAPID CTY ARPT CLEAR     84  47  27 E10       29.96S
PIERRE         CLEAR     81  52  36 E10       29.95S
CUSTER         CLOUDY    78  48  34 E10G21    30.13F
ELLSWORTH AFB  CLEAR     85  48  27 E10       29.96S
PHILIP         CLEAR     84  50  30 E12       29.93S
PINE RIDGE     CLEAR     80  57  45 E10       29.97S
SPEARFISH      FAIR      84  46  26 SE12G18   29.98F
WINNER         FAIR      81  53  37 E9        29.98S
$$

SDZ004>011-016>023-039-040-240300-
NORTHEAST SOUTH DAKOTA

CITY           SKY/WX    TMP DP  RH WIND       PRES   REMARKS
ABERDEEN       CLEAR     73  62  68 E6        29.99R
WATERTOWN      CLEAR     68  59  73 E5        30.01R
BROOKINGS      CLEAR     70  59  68 E9        30.02R
SISSETON         N/A     69  61  75 CALM      29.99S
$$

SDZ017-020-022-023-036>040-048>070-240300-
SOUTHEAST SOUTH DAKOTA

CITY           SKY/WX    TMP DP  RH WIND       PRES   REMARKS
SIOUX FALLS    PTCLDY    72  62  71 NE10      30.00R
HURON          CLEAR     74  62  66 CALM      29.98S
CHAMBERLAIN    CLEAR     80  57  45 E6        29.98S
MITCHELL       CLEAR     74  61  63 E3        29.99R
YANKTON        CLEAR     74  61  63 NE7       29.98S
$$

ABBREVIATIONS USED IN REMARKS
   TC - TEMPERATURE IN CELSIUS
  WCI - WIND CHILL INDEX
   HX - HEAT INDEX
  VSB - VISIBILITY





USA.gov is the U.S. government's official web portal to all federal, state and local government web resources and services.